Regional Weather Roundup
Issued by NWS Grand Forks, ND

Home | Current Version | Previous Version | Graphics & Text | Print | Product List | Glossary On
Versions: 1 2 3 4 5 6 7 8 9 10 11 12 13 14 15 16 17 18 19 20 21 22 23 24 25 26 27 28 29 30 31 32 33 34 35 36 37 38 39 40 41 42 43 44 45 46 47 48 49 50
000
ASUS43 KFGF 241610
RWRFGF
PRAIRIE TO PINES  WEATHER ROUNDUP
NATIONAL WEATHER SERVICE EASTERN NORTH DAKOTA/GRAND FORKS ND
1100 AM CDT FRI APR 24 2015

 **SATELLITE DATA USED TO AUGMENT SKY COVER AT AUTOMATED STATIONS**
 *****  WEATHER ACROSS EASTERN NORTH DAKOTA  *****

CITY           SKY/WX    TMP DP  RH WIND       PRES   REMARKS
GRAND FORKS    CLOUDY    46  35  65 SE16      29.78F
GRAND FRKS AFB MOSUNNY   47  35  63 SE17      29.77F
GRAND FRKS NWS   N/A     45 N/A N/A E16         N/A
DEVILS LAKE    SUNNY     46  34  61 SE15G21   29.73S
FARGO          CLOUDY    49  39  68 SE25G33   29.73S
WAHPETON ARPT  CLOUDY    45  36  70 SE21G30   29.74S
$$

 ***** WEATHER ACROSS CENTRAL AND WESTERN NORTH DAKOTA  *****

CITY           SKY/WX    TMP DP  RH WIND       PRES   REMARKS
BISMARCK       SUNNY     50  33  52 NE3       29.66F
MINOT          SUNNY     45  31  58 SE9       29.71S
JAMESTOWN      SUNNY     50  38  63 E12       29.68R
MINOT AFB      SUNNY     46  33  60 SE10      29.70F
GARRISON         N/A     47  33  58 E8        29.68F
WILLISTON      SUNNY     49  27  42 SE9       29.67S
DICKINSON      SUNNY     49  29  46 CALM      29.63S
HETTINGER      SUNNY     55  34  45 N8        29.64F
$$

 *****  OTHER AIRPORT OBSERVATIONS IN OUR AREA  *****

CITY           SKY/WX    TMP DP  RH WIND       PRES   REMARKS
WALHALLA       FAIR      48  32  53 SE13G21   29.80F
GRAFTON AIRPOR CLOUDY    46  34  61 SE14G23   29.80F
VALLEY CITY AR FAIR      48  39  71 SE16G22   29.71R
CANDO          FAIR      48  34  57 SE13G21   29.76S
CAVALIER APRT  FAIR      48  32  53 S9G20     29.80F
GWINNER        SUNNY     52  39  62 SE25      29.69S
SHEYENNE NWR     N/A     49  38  66 SE20      29.95S
ROLLA          FAIR      46  32  57 SE13G18   29.75F
 ***** THE ABOVE OBSERVATIONS ARE NON NWS ARE NOT QUALITY
       CONTROLLED AND MAY MIS-REPORT RAIN FOR SNOW...
$$

  *****  WEATHER ACROSS NORTHERN MINNESOTA  *****

CITY           SKY/WX    TMP DP  RH WIND       PRES   REMARKS
FLAG ISLAND    CLOUDY    39  19  45 E7        29.90F
WARROAD        CLOUDY    37  27  65 E12       29.88F
ROSEAU         CLOUDY    45  27  49 SE13      29.85F
HALLOCK        PTSUNNY   48  28  46 SE12      29.81S
THF RVR FALLS  CLOUDY    45  32  61 SE18      29.81S
BAUDETTE       CLOUDY    39  19  44 E14       29.89F
WASKISH        CLOUDY    41  27  56 E5G16     29.87F
CROOKSTON      CLOUDY    45  36  70 SE15      29.80S
$$
  *****  WEATHER ACROSS CENTRAL AND WEST MINNESOTA  *****

CITY           SKY/WX    TMP DP  RH WIND       PRES   REMARKS
FOSSTON        PTSUNNY   45  36  70 SE18      29.79F
BEMIDJI        CLOUDY    37  32  82 SE13      29.85F
PARK RAPIDS    LGT RAIN  39  35  86 SE13      29.84R
ELBOW LAKE     CLOUDY    39  37  90 SE18G29   29.75F
WADENA         NOT AVBL
DETROIT LAKES  MOSUNNY   43  34  70 SE24      29.78F
MOORHEAD       CLOUDY    46  37  71 SE20G28   29.75R
FERGUS FALLS   CLOUDY    43  32  65 SE17G24   29.78S
MORRIS MN      PTSUNNY   43  37  81 E22G31    29.74S
STAPLES        CLOUDY    41  34  75 SE13G20   29.84S
$$
  *****  WEATHER ELSEWHERE ACROSS MINNESOTA  *****

CITY           SKY/WX    TMP DP  RH WIND       PRES   REMARKS
DULUTH         FLURRIES  37  22  54 SE10      29.98F
INTRNTL FALLS  CLOUDY    38  18  44 SE10      29.94F
ELY            PTSUNNY   39  14  35 E12       29.98S
CLOQUET        LGT SNOW  34  30  86 E8        29.98F
WHEATON        PTSUNNY   43  37  81 E30G37    29.73F
BRAINERD       LGT RAIN  42  31  64 SE20G25   29.88F
HIBBING        CLOUDY    40  22  48 S7        29.95F
ALEXANDRIA     LGT RAIN  37  34  89 SE18      29.79R FOG
SAINT CLOUD    LGT RAIN  40  32  73 E9        29.87F
MINNEAPOLIS    CLOUDY    50  24  36 SE13      29.89F
$$

  *****  WEATHER ACROSS SOUTH DAKOTA  *****

CITY           SKY/WX    TMP DP  RH WIND       PRES   REMARKS
SIOUX FALLS    CLOUDY    58  45  62 S16       29.67F
BROOKINGS      MOSUNNY   55  43  62 S21G29    29.67S
WATERTOWN      PTSUNNY   59  43  55 SE16G25   29.64F
HURON          PTSUNNY   62  44  51 S17G25    29.60S
SISSETON         N/A     48  42  80 SE20G29   29.69F
ABERDEEN       PTSUNNY   60  43  53 SE12      29.61S
MITCHELL       PTSUNNY   63  46  54 S16G25    29.61F
PIERRE         PTSUNNY   63  47  55 N8        29.55R
MOBRIDGE       PTSUNNY   56  39  53 N13       29.58S
RAPID CITY     MOSUNNY   60  42  51 N15       29.62S
$$

  *****  SOME WEATHER IN NEARBY STATES *****

CITY           SKY/WX    TMP DP  RH WIND       PRES   REMARKS
GLASGOW MT     MOSUNNY   50  34  54 SE13      29.61R
GREAT FALLS MT LGT RAIN  47  35  63 SE7       29.66R
CHEYENNE WY    SUNNY     58  28  32 W20       29.72F
SCOTTSBLUFF NE MOSUNNY   61  38  42 W12G21    29.66F
OMAHA NE       CLOUDY    60  47  61 S16       29.73F
DES MOINES IA  CLOUDY    57  43  59 S16       29.81F
DAVENPORT IA   NOT AVBL
CHICAGO IL     MOSUNNY   55  14  19 E5        30.05F
EAU CLAIRE WI  PTSUNNY   51  21  30 E8        29.96F
LA CROSSE WI   MOSUNNY   55  24  30 S7        29.97F
$$

  *****  SOME NATIONAL WEATHER *****

CITY           SKY/WX    TMP DP  RH WIND       PRES   REMARKS
LA GUARDIA NY  PTSUNNY   43  21  41 NW18G28   29.86S
RALEIGH NC     MOSUNNY   59  25  27 NW10G20   30.09S
ATLANTA GA     MOSUNNY   65  33  30 E5        30.09F
NEW ORLEANS LA CLOUDY    77  69  76 E9        29.98F
OKLAHOMA CITY  CLOUDY    67  63  87 S13       29.76F
ALBUQUERQUE NM CLOUDY    49  38  65 E5        29.94R
SALT LAKE CITY PTSUNNY   59  30  33 S21       29.71F
LOS ANGELES CA CLOUDY    59  52  77 S5        29.99R
BOISE ID       CLOUDY    46  40  79 NE7       29.75F
SEATTLE WA     PTSUNNY   49  41  74 SW14G21   29.80S
$$

*** WEATHER ACROSS MANITOBA...SASKATCHEWAN AND ONTARIO ***
                ***ONTARIO***

CITY           SKY/WX    TMP DP  RH WIND       PRES   REMARKS
GERALDTON      MOSUNNY   30  12  47 W7        30.08S WCI  23
THUNDER BAY    PTSUNNY   39  27  60 E14       30.09F
SIOUX LOOKOUT  PTSUNNY   39  10  30 S8        30.02S
TORONTO        PTSUNNY   39  19  45 W17G25    29.99F
BIG TROUT LK   SUNNY     19  10  68 NW6       30.11S WCI  11
PICKLE LAKE    MOSUNNY   28   9  43 N3        30.06F
DRYDEN         PTSUNNY   41  14  33 SE14      29.98S
KENORA         PTSUNNY   45  14  29 SE9       29.93F
$$
                *** MANITOBA***

CITY           SKY/WX    TMP DP  RH WIND       PRES   REMARKS
BRANDON        CLOUDY    46  28  49 SE13G20   29.79F
DAUPHIN        PTSUNNY   45  25  45 E7        29.80S
ISLAND LAKE    CLOUDY    30  12  47 SE9       30.04F WCI  22
PILOT MOUND      N/A     48  32  53 SE17        N/A
THE PAS        FLURRIES  30  23  74 NE7       29.82F WCI  23
THOMPSON       LGT SNOW  21  12  68 E8        30.05S WCI  12
WINNIPEG       PTSUNNY   46  25  42 SE15      29.86F
LYNN LAKE      PTSUNNY   18   9  68 E7        30.02F WCI   8
CHURCHILL      MOSUNNY   12   5  73 W12       30.13S WCI  -2
GILLAM         CLOUDY    14   5  67 N3        30.14F
$$
                ***SASKATCHEWAN***

CITY           SKY/WX    TMP DP  RH WIND       PRES   REMARKS
ESTEVAN          N/A     46  27  46 E12       29.69R
KINDERSLEY     PTSUNNY   52  39  62 E17       29.62R
LLOYDMINSTER   CLOUDY    39  36  87 NE15      29.69S
PRINCE ALBERT  CLOUDY    36  28  75 E15       29.76R
REGINA         PTSUNNY   46  30  53 SE9       29.68F
YORKTON        SUNNY     46  25  42 S12G18    29.73F
N. BATTLEFORD  CLOUDY    41  37  87 E13       29.71S
LA RONGE       PTSUNNY   30  18  59 NE14      29.89R WCI  20
SASKATOON      MOSUNNY   45  36  70 NE9       29.70R
SWIFT CURRENT  CLOUDY    46  39  76 E12       29.61S
$$
NOTE: THESE ARE AUTOMATED STATIONS WITH LIMITED QUALITY CONTROL
      "FAIR" INDICATES FEW OR NO CLOUDS BELOW 12,000 FEET WITH NO
      SIGNIFICANT WEATHER AND/OR OBSTRUCTIONS TO VISIBILITY.
      SKY/WX - SKY CONDITION AND SIGNIFICANT WEATHER.
      TMP - AIR TEMPERATURE.    DP   - DEWPOINT TEMPERATURE.
      RH  - RELATIVE HUMIDITY.  PRES - PRESSURE.
      HX  - HEAT INDEX.         WCI  - WIND CHILL INDEX.
$


USA.gov is the U.S. government's official web portal to all federal, state and local government web resources and services.